| time (UTC) | temp F | wind direction | speed MPH | gust MPH | rain 1hr in | rain 24hr in | rain mn in | humidity % | barometer mb |
| 20260504034651 | 58 | 26 | 0.0 | 0.0 | 0.00 | 0.00 | 0.00 | 89 | 1014.7 |
| 20260504033155 | 58 | 26 | 0.0 | 2.0 | 0.00 | 0.00 | 0.00 | 88 | 1014.8 |
| 20260504031651 | 58 | 278 | 0.0 | 2.0 | 0.00 | 0.00 | 0.00 | 88 | 1014.7 |
| 20260504024652 | 58 | 292 | 0.0 | 3.0 | 0.00 | 0.00 | 0.00 | 88 | 1014.9 |
| 20260504023140 | 58 | 17 | 0.0 | 0.0 | 0.00 | 0.00 | 0.00 | 89 | 1014.9 |
| 20260504021650 | 58 | 17 | 0.0 | 0.0 | 0.00 | 0.00 | 0.00 | 89 | 1014.9 |
| 20260504020150 | 58 | 17 | 0.0 | 0.0 | 0.00 | 0.00 | 0.00 | 89 | 1014.9 |
| 20260504014650 | 59 | 17 | 0.0 | 0.0 | 0.00 | 0.00 | 0.00 | 88 | 1015.1 |
| 20260504013200 | 58 | 17 | 0.0 | 0.0 | 0.00 | 0.00 | 0.00 | 90 | 1015.1 |
| 20260504011650 | 58 | 17 | 0.0 | 0.0 | 0.00 | 0.00 | 0.00 | 90 | 1015.3 |
| 20260504010146 | 59 | 17 | 0.0 | 0.0 | 0.00 | 0.00 | 0.00 | 89 | 1015.4 |
| 20260504004651 | 59 | 17 | 0.0 | 0.0 | 0.00 | 0.00 | 0.00 | 89 | 1015.5 |
| 20260504003157 | 59 | 17 | 0.0 | 0.0 | 0.00 | 0.00 | 0.00 | 89 | 1015.5 |
| 20260504001652 | 59 | 101 | 0.0 | 0.0 | 0.00 | 0.00 | 0.00 | 88 | 1015.6 |
| 20260503234651 | 59 | 196 | 0.0 | 0.0 | 0.00 | 0.00 | 0.00 | 89 | 1015.6 |
| 20260503233156 | 59 | 196 | 0.0 | 0.0 | 0.00 | 0.00 | 0.00 | 88 | 1015.7 |
| 20260503231650 | 59 | 196 | 0.0 | 0.0 | 0.00 | 0.00 | 0.00 | 87 | 1015.7 |
| 20260503230151 | 59 | 196 | 0.0 | 0.0 | 0.00 | 0.00 | 0.00 | 87 | 1015.7 |
| 20260503224502 | 59 | 196 | 0.0 | 0.0 | 0.00 | 0.00 | 0.00 | 87 | 1015.7 |
| 20260503223156 | 59 | 196 | 0.0 | 1.0 | 0.00 | 0.00 | 0.00 | 87 | 1015.6 |
| 20260503221653 | 59 | 163 | 0.0 | 2.0 | 0.00 | 0.00 | 0.00 | 87 | 1015.8 |
| 20260503214650 | 60 | 146 | 0.0 | 0.0 | 0.00 | 0.00 | 0.00 | 84 | 1015.5 |
| 20260503213156 | 61 | 146 | 0.0 | 0.0 | 0.00 | 0.00 | 0.00 | 83 | 1015.8 |
| 20260503211650 | 60 | 146 | 0.0 | 0.0 | 0.00 | 0.00 | 0.00 | 82 | 1015.9 |
| 20260503204653 | 61 | 146 | 0.0 | 2.0 | 0.00 | 0.00 | 0.00 | 82 | 1016.1 |
| 20260503203140 | 61 | 146 | 0.0 | 0.0 | 0.00 | 0.00 | 0.00 | 81 | 1016.0 |
| 20260503201652 | 61 | 146 | 0.0 | 1.0 | 0.00 | 0.00 | 0.00 | 81 | 1016.1 |
| 20260503194651 | 61 | 162 | 0.0 | 6.0 | 0.00 | 0.00 | 0.00 | 80 | 1016.1 |
| 20260503193141 | 61 | 184 | 2.0 | 5.0 | 0.00 | 0.00 | 0.00 | 78 | 1016.0 |
| 20260503191656 | 61 | 140 | 2.0 | 4.0 | 0.00 | 0.00 | 0.00 | 77 | 1015.6 |
| 20260503190148 | 61 | 138 | 0.0 | 2.0 | 0.00 | 0.00 | 0.00 | 75 | 1015.5 |
| 20260503184653 | 61 | 123 | 0.0 | 3.0 | 0.00 | 0.00 | 0.00 | 74 | 1015.5 |
| 20260503183155 | 61 | 119 | 1.0 | 7.0 | 0.00 | 0.00 | 0.00 | 73 | 1015.6 |
| 20260503181652 | 62 | 120 | 2.0 | 7.0 | 0.00 | 0.00 | 0.00 | 73 | 1015.5 |
| 20260503174651 | 62 | 174 | 3.0 | 8.0 | 0.00 | 0.00 | 0.00 | 73 | 1015.6 |
| 20260503173138 | 62 | 147 | 2.0 | 7.0 | 0.00 | 0.00 | 0.00 | 75 | 1015.4 |
| 20260503171652 | 62 | 161 | 6.0 | 9.0 | 0.00 | 0.00 | 0.00 | 76 | 1015.3 |
| 20260503170152 | 62 | 118 | 5.0 | 9.0 | 0.00 | 0.00 | 0.00 | 76 | 1015.3 |
| 20260503160148 | 65 | 110 | 1.0 | 8.0 | 0.00 | 0.00 | 0.00 | 70 | 1014.9 |
| 20260503140149 | 67 | 164 | 3.0 | 9.0 | 0.00 | 0.00 | 0.00 | 63 | 1016.0 |
| 20260503130150 | 66 | 148 | 4.0 | 11.0 | 0.00 | 0.00 | 0.00 | 68 | 1016.8 |
| 20260503100150 | 66 | 198 | 2.0 | 9.0 | 0.00 | 0.00 | 0.00 | 66 | 1018.0 |
| 20260503071653 | 61 | 320 | 0.0 | 4.0 | 0.00 | 0.00 | 0.00 | 79 | 1018.2 |
| 20260503060149 | 59 | 338 | 0.0 | 5.0 | 0.00 | 0.00 | 0.00 | 84 | 1018.4 |
| 20260503054652 | 59 | 261 | 0.0 | 0.0 | 0.00 | 0.00 | 0.00 | 85 | 1018.3 |
| 20260503053143 | 59 | 261 | 0.0 | 0.0 | 0.00 | 0.00 | 0.00 | 85 | 1018.1 |
| 20260503051654 | 59 | 260 | 0.0 | 0.0 | 0.00 | 0.00 | 0.00 | 84 | 1017.9 |
| 20260503050154 | 59 | 254 | 0.0 | 0.0 | 0.00 | 0.00 | 0.00 | 84 | 1018.0 |
| 20260503044653 | 59 | 250 | 0.0 | 0.0 | 0.00 | 0.00 | 0.00 | 84 | 1018.0 |
| 20260503043139 | 59 | 99 | 0.0 | 0.0 | 0.00 | 0.00 | 0.00 | 84 | 1017.9 |
| 20260503041652 | 60 | 99 | 0.0 | 0.0 | 0.00 | 0.00 | 0.00 | 82 | 1018.0 |